Find Starlink 1873

NORAD ID: 47158 Int'l Des: 2020-088 Owner: SPXS Country: US Constellation: starlink operational
LEOCIRCULAR

リアルタイム位置

3D地球を読み込み中...

Starlink 1873について

説明を読み込み中...

次回通過

Passes for default location (London). Set your location on the main map for personalized predictions.

高度履歴

Loading altitude history...

軌道要素

1 47158U 20088AN 26126.00809977 .00108155 00000-0 86874-3 0 9996
2 47158 53.0443 348.2482 0001563 304.7505 55.3364 15.70180812301267
Epoch: May 6, 2026 • Age: 11 hours

現在のステータス

高度 365.1 km
速度 7.70 km/s
衛星直下点 51.26°N, 62.92°E
打ち上げ日 Nov 25, 2020
運用期間 5.4 years
タイプ internet

技術仕様

分類 Payload
質量 260.00 kg
乾燥質量 248.00 kg
総質量 260.00 kg
長さ 0.20 m
直径 2.80 m
スパン 9.00 m
形状 Box + pan
製造者 SPXS
バスタイプ Starlink
フェーズステータス In Orbit
所有者/国 SPXS/US

Most Searched